Tracking 30995 objects as of 7-Jul-2025
HD Live streaming from Space Station
objects crossing your sky now

STARLINK-5363

Track STARLINK-5363 now!
10-day predictions
STARLINK-5363 is classified as:


NORAD ID: 55497
Int'l Code: 2023-015BA
Perigee: 565.2 km
Apogee: 567.2 km
Inclination: 43.0 °
Period: 95.8 minutes
Semi major axis: 6937 km
RCS: Unknown
Launch date: February 2, 2023
Source: United States (US)
Launch site: AIR FORCE EASTERN TEST RANGE (AFETR)
Your satellite tracking list
OBJECT M
Track 1 satellite(s)




NASA's NSSDC Master Catalog

Two Line Element Set (TLE):
1 55497U 23015BA  25187.42900453 -.00000395  00000-0 -14135-4 0  9998
2 55497  43.0021 236.7786 0001432 290.0732  69.9956 15.02535650133568
Source of the keplerian elements: AFSPC